User: anonymous   Login
Location: Dumpton Point
(51.3500°N, 1.4433°E)
Time: 10:40:58
(UTC+00:00)
Language:

Cosmos 1743 Rocket - Orbit

View from above orbital plane
View from above orbital plane
View from above satellite
View from above satellite

Ground track
Ground track

The orbit data is extracted from the following two-line orbital elements,

1 16720U 86034B   20184.81098014 +.00000028 +00000-0 +41375-6 0  9999
2 16720 082.5549 285.0227 0021076 037.6377 082.2041 14.83396810822963
Epoch (UTC): 02 July 2020 19:27:48
Eccentricity: 0.0021076
inclination: 82.5549°
perigee height: 604 km
apogee height: 633 km
right ascension of ascending node: 285.0227°
argument of perigee: 37.6377°
revolutions per day: 14.83396810
mean anomaly at epoch: 82.2041°
orbit number at epoch: 82296

The dashed part of the orbit path shows where the satellite is in the earth's shadow,  

DLR